EDT,Max TemperatureF,Mean TemperatureF,Min TemperatureF,Max Dew PointF,MeanDew PointF,Min DewpointF,Max Humidity, Mean Humidity, Min Humidity, Max Sea Level PressureIn, Mean Sea Level PressureIn, Min Sea Level PressureIn, Max VisibilityMiles, Mean VisibilityMiles, Min VisibilityMiles, Max Wind SpeedMPH, Mean Wind SpeedMPH, Max Gust SpeedMPH,PrecipitationIn, CloudCover, Events, WindDirDegrees
2012-10-1,65,61,57,59,55,45,100,76,52,29.85,29.70,29.62,10,7,1,16,7,24,1.06,6,Rain,44
2012-10-2,68,64,60,63,60,55,100,87,73,29.93,29.74,29.61,10,10,10,12,6,16,T,8,,187
2012-10-3,74,65,55,56,52,49,93,67,41,30.14,30.05,29.93,10,10,9,14,5,20,0.00,3,,195
2012-10-4,78,66,54,58,55,52,93,68,42,30.24,30.19,30.15,10,9,1,14,4,18,0.00,0,,205
2012-10-5,76,60,44,61,55,43,93,76,58,30.16,30.07,29.96,10,10,7,21,5,30,0.11,4,Rain,282
2012-10-6,59,50,41,43,38,29,96,65,33,30.20,30.13,30.08,10,10,5,13,6,16,0.09,4,Rain,324
2012-10-7,56,49,42,39,35,32,76,59,41,30.21,30.18,30.13,10,10,10,15,5,18,0.00,5,,319
2012-10-8,58,49,39,38,36,28,86,60,33,30.27,30.20,30.14,10,10,10,8,1,13,0.00,0,,337
2012-10-9,64,52,39,43,40,37,96,70,43,30.19,30.10,30.00,10,10,9,12,3,17,0.00,0,,171
2012-10-10,60,50,39,46,39,30,80,59,37,30.27,30.11,29.97,10,10,10,18,8,25,0.00,3,,282
2012-10-11,63,48,33,41,35,30,92,63,34,30.33,30.26,30.19,10,10,10,12,2,16,0.00,0,,209
2012-10-12,68,56,43,46,43,40,86,64,42,30.34,30.29,30.22,10,10,10,9,3,14,T,3,,55
2012-10-13,75,60,45,64,53,39,82,71,59,30.31,30.18,30.04,10,10,10,14,5,22,0.00,3,,177
2012-10-14,76,69,61,62,58,55,84,69,53,30.03,29.89,29.76,10,10,10,24,13,38,0.06,6,Rain,195
2012-10-15,65,56,47,57,43,38,80,59,37,29.99,29.93,29.85,10,10,10,22,8,30,0.00,1,Rain,280
2012-10-16,70,55,40,44,42,39,96,66,36,30.02,29.93,29.82,10,10,10,10,4,16,0.00,0,,159
2012-10-17,76,65,54,52,48,44,83,60,36,29.82,29.72,29.54,10,10,10,21,8,31,0.00,1,,167
2012-10-18,69,60,50,56,44,32,93,65,36,29.71,29.66,29.49,10,10,7,24,8,36,0.34,4,Rain,212
2012-10-19,57,53,49,45,40,34,86,66,46,29.79,29.68,29.61,10,10,7,16,8,24,0.05,7,Rain,212
2012-10-20,54,50,46,46,45,43,93,80,66,30.01,29.90,29.78,10,10,9,13,4,18,T,7,Rain,251
2012-10-21,72,57,41,48,45,40,96,69,41,30.13,30.08,30.01,10,10,6,10,2,15,0.00,0,,146
2012-10-22,78,67,56,54,52,48,75,59,42,30.14,30.09,30.03,10,10,10,13,5,18,0.00,4,Rain,164
2012-10-23,80,71,61,52,49,46,69,50,30,30.11,30.05,30.00,10,10,9,15,5,20,0.00,2,,189
2012-10-24,80,69,57,57,52,50,78,59,39,30.13,30.07,30.02,10,10,10,14,3,16,0.00,2,,170
2012-10-25,80,66,52,57,53,48,93,65,36,30.07,30.00,29.94,10,10,10,18,4,24,0.00,0,,175
2012-10-26,67,56,45,56,47,44,100,84,68,30.18,30.12,29.97,10,7,2,20,8,24,0.84,7,Rain,345
2012-10-27,56,49,42,43,40,36,92,72,51,30.15,30.12,30.07,10,10,9,17,9,23,0.00,8,,352
2012-10-28,51,46,41,36,34,31,76,61,46,30.10,30.08,30.05,10,10,10,17,10,24,0.00,8,,349
2012-10-29,56,47,38,32,25,14,70,45,20,30.09,30.03,29.86,10,10,10,23,12,37,0.00,0,,337
2012-10-30,46,43,40,36,34,30,79,66,53,29.83,29.71,29.68,10,10,10,25,15,32,0.03,6,Rain,297
2012-10-31,52,45,38,32,30,27,62,54,46,29.90,29.82,29.75,10,10,10,18,11,24,0.00,5,,278